Temp
19 19 19 19 19 19 19 19 19 19 20 20 20 20 20 20 21 21 21 19 21 22 22 23 23 23 23 22 22 21 13 13 15 14 12 12 11 10 9 9 9 9 9 9 9
18 19 19 19 19 19 19 19 19 20 20 20 20 21 21 20 21 20 20 21 21 22 22 23 23 23 23 22 21 16 12 14 14 11 9 10 10 10 9 9 9 9 9 9 9
18 19 19 19 19 19 19 19 19 20 20 20 21 21 21 21 21 20 21 21 22 22 23 23 23 23 21 20 18 15 13 13 12 10 11 9 9 10 9 7 9 8 9 9 8
18 18 19 19 19 19 19 19 20 20 20 21 21 21 21 21 20 20 21 21 22 22 23 24 23 22 17 15 17 13 13 14 13 12 11 9 9 9 9 9 9 9 9 8 8
18 18 19 19 19 19 19 20 20 20 21 21 22 22 22 21 19 20 21 21 22 22 23 23 23 21 16 16 15 12 12 11 11 11 10 10 9 9 8 9 9 9 8 8 7
18 18 19 19 19 19 19 20 20 20 21 21 21 21 21 18 19 20 21 21 22 22 22 23 22 22 19 17 15 14 12 10 11 10 9 9 9 9 8 9 9 8 8 7 7
18 18 18 19 19 19 20 20 20 21 21 21 21 21 21 19 20 20 21 22 22 22 22 22 22 22 19 15 15 12 10 10 10 10 9 11 7 7 8 9 8 7 7 6 6
18 18 19 19 19 20 20 20 21 21 21 21 21 21 20 20 20 21 21 22 21 21 21 21 21 20 18 17 15 14 12 11 11 11 10 10 6 7 9 8 7 7 6 6 5
18 18 19 19 20 20 20 21 21 21 21 21 22 22 20 20 21 21 21 22 21 21 21 21 21 17 17 14 13 12 13 13 13 12 9 9 6 7 8 7 7 6 6 5 5
19 19 19 19 20 20 20 21 20 22 21 22 22 21 20 19 19 20 21 22 21 21 21 20 17 11 9 11 13 13 13 13 13 11 7 6 5 7 7 7 6 6 5 5 4
19 19 19 19 20 20 20 21 21 21 20 19 18 18 19 19 19 20 21 21 21 20 14 15 12 10 12 12 11 12 13 12 12 10 7 6 5 6 7 6 6 5 4 4 4
19 19 19 19 20 20 21 21 20 20 18 19 19 18 19 19 19 20 20 20 16 13 15 11 10 11 13 11 11 13 12 10 11 9 6 6 6 7 6 6 5 4 4 3 3
19 19 19 19 19 20 21 21 20 20 19 18 19 18 18 18 17 17 18 17 14 12 10 10 12 12 13 11 10 11 10 10 10 8 7 5 5 5 6 6 5 4 3 3 3
19 19 19 19 19 19 20 20 20 20 14 16 19 19 18 18 17 17 17 17 15 12 11 10 11 11 12 11 10 10 11 10 9 8 7 7 5 4 3 3 4 3 3 3 3
19 19 19 19 19 19 20 20 20 20 17 18 19 19 18 17 17 16 16 16 12 11 13 11 10 9 10 10 10 11 9 9 10 8 9 8 3 2 2 3 2 3 2 2 2
18 19 19 19 19 20 20 20 20 16 17 18 19 18 17 17 17 17 15 15 14 12 11 11 12 10 10 10 10 10 9 9 7 7 8 7 6 1 1 2 2 2 2 2 2
18 19 19 19 19 20 20 20 16 15 18 18 17 17 15 15 14 13 10 8 8 12 10 11 9 10 10 9 9 7 6 7 11 7 8 5 3 2 3 2 2 2 2 2 2
18 18 19 19 19 19 20 16 17 17 17 17 17 16 16 16 14 10 10 8 8 8 7 9 11 8 10 9 8 7 5 5 10 7 5 5 2 2 4 2 2 2 2 1 1
18 18 18 19 19 19 19 14 15 16 16 16 16 17 16 15 13 10 8 8 8 7 10 9 9 10 10 9 8 8 5 6 5 4 3 3 3 4 2 2 1 1 1 1 0
17 18 18 18 19 19 13 13 13 14 14 15 17 16 15 14 14 11 9 8 7 8 8 9 9 9 9 9 8 7 6 6 2 1 4 2 2 0 0 0 1 1 1 1 0
17 18 18 18 19 19 12 12 12 14 14 15 15 15 14 15 13 10 9 8 7 7 8 8 8 9 7 5 5 4 4 2 2 1 -1 -1 2 2 -1 0 0 1 0 0 -0
17 15 17 18 16 10 10 12 14 14 14 14 13 14 14 12 11 10 11 8 7 7 8 7 5 4 6 6 6 5 4 1 -1 1 -2 -4 -1 1 0 1 1 0 0 -0 -1
17 17 17 18 11 7 11 11 12 13 12 14 13 13 12 11 11 9 8 7 7 7 7 7 6 5 6 6 6 4 4 3 -1 -4 -3 -4 0 2 1 1 0 -0 -0 -1 -1
17 12 18 18 14 10 10 11 11 12 13 13 13 13 11 11 8 8 8 7 7 7 7 7 5 6 5 7 4 5 4 3 0 -5 -5 -2 -1 0 -0 -1 -0 -1 -1 -1 -1
16 13 13 10 12 11 11 10 10 12 12 13 13 13 12 9 11 9 7 7 8 8 7 6 6 7 6 6 5 6 5 2 -4 1 -3 1 -1 -0 -1 -1 -0 -1 -1 -1 -2
16 15 14 12 12 12 9 11 11 10 11 12 11 9 11 10 11 8 7 6 8 8 7 5 5 7 6 5 5 5 5 3 3 3 1 1 -0 0 0 -0 -1 -1 -2 -2 -2
15 15 16 8 10 9 9 10 10 10 9 10 9 7 7 7 8 8 8 8 7 7 5 4 3 2 6 5 5 5 5 4 3 3 1 0 0 -1 -1 -1 -1 -1 -2 -2 -2
Height
1543 1542 1542 1542 1542 1543 1543 1544 1545 1545 1545 1545 1545 1545 1545 1544 1543 1542 1538 1541 1538 1536 1535 1534 1534 1532 1532 1532 1533 1534 1555 1570 1565 1567 1573 1574 1576 1580 1583 1581 1582 1584 1587 1588 1586
1543 1543 1543 1542 1543 1544 1545 1545 1546 1546 1547 1546 1546 1546 1546 1545 1544 1543 1543 1540 1538 1536 1535 1534 1534 1533 1532 1533 1534 1536 1560 1564 1562 1566 1573 1574 1575 1580 1585 1585 1586 1586 1587 1587 1584
1544 1544 1543 1544 1545 1546 1547 1547 1548 1548 1548 1548 1548 1547 1546 1545 1545 1545 1542 1541 1539 1537 1536 1534 1534 1534 1534 1536 1541 1548 1562 1564 1568 1569 1571 1576 1577 1582 1583 1588 1589 1588 1588 1585 1583
1545 1545 1545 1546 1546 1548 1548 1549 1549 1548 1548 1548 1548 1547 1546 1545 1551 1546 1543 1541 1539 1537 1536 1533 1533 1534 1540 1545 1547 1557 1564 1564 1570 1572 1572 1576 1582 1585 1586 1590 1590 1589 1588 1585 1583
1546 1547 1547 1547 1548 1549 1550 1550 1549 1549 1549 1549 1548 1547 1546 1546 1549 1546 1544 1542 1540 1539 1536 1534 1534 1536 1543 1549 1550 1557 1565 1567 1570 1571 1575 1579 1583 1585 1590 1591 1591 1590 1589 1586 1584
1548 1548 1548 1549 1549 1550 1551 1551 1550 1550 1550 1549 1549 1547 1547 1548 1549 1546 1545 1544 1541 1539 1537 1535 1537 1538 1542 1548 1550 1559 1565 1572 1573 1574 1580 1580 1587 1587 1594 1593 1592 1591 1589 1587 1584
1550 1550 1550 1550 1551 1551 1552 1552 1552 1551 1551 1551 1550 1549 1548 1553 1550 1547 1546 1544 1543 1541 1539 1539 1538 1539 1544 1552 1558 1563 1571 1573 1575 1575 1581 1576 1591 1594 1594 1593 1593 1593 1590 1587 1583
1551 1552 1552 1552 1552 1552 1553 1553 1552 1552 1552 1551 1550 1550 1551 1551 1550 1548 1546 1546 1545 1543 1543 1542 1541 1541 1546 1554 1562 1565 1569 1576 1573 1575 1577 1578 1599 1596 1596 1595 1595 1593 1588 1583 1579
1552 1553 1553 1553 1553 1553 1553 1554 1553 1552 1552 1552 1551 1550 1553 1553 1550 1549 1547 1546 1546 1545 1544 1544 1543 1550 1553 1558 1567 1568 1571 1571 1574 1574 1577 1584 1598 1598 1597 1596 1594 1590 1585 1581 1575
1553 1553 1553 1553 1553 1553 1553 1554 1553 1552 1553 1552 1552 1554 1556 1557 1553 1550 1548 1547 1547 1546 1546 1546 1551 1561 1566 1569 1579 1573 1571 1570 1573 1578 1581 1589 1597 1596 1596 1594 1593 1588 1585 1579 1573
1553 1554 1553 1554 1554 1554 1554 1554 1556 1557 1554 1559 1561 1560 1560 1558 1556 1551 1550 1549 1547 1548 1555 1557 1565 1579 1575 1572 1569 1568 1571 1575 1573 1578 1585 1593 1596 1595 1596 1593 1591 1589 1582 1579 1572
1552 1553 1553 1554 1554 1554 1554 1553 1554 1558 1562 1563 1563 1562 1561 1558 1557 1554 1553 1552 1552 1560 1559 1568 1580 1575 1571 1570 1568 1565 1571 1579 1575 1579 1585 1596 1596 1595 1596 1596 1594 1589 1582 1576 1570
1552 1553 1553 1554 1555 1555 1554 1555 1556 1557 1560 1565 1564 1563 1564 1564 1563 1561 1559 1559 1562 1567 1570 1578 1583 1574 1572 1574 1573 1571 1575 1578 1580 1583 1586 1593 1600 1601 1599 1596 1592 1587 1583 1577 1570
1551 1553 1553 1554 1558 1555 1556 1556 1557 1558 1570 1572 1567 1568 1567 1564 1566 1566 1563 1563 1565 1575 1574 1582 1582 1578 1576 1576 1578 1577 1570 1571 1572 1579 1587 1585 1601 1603 1603 1597 1592 1588 1580 1574 1568
1551 1552 1553 1555 1555 1556 1557 1557 1557 1558 1591 1574 1571 1571 1569 1567 1571 1569 1567 1566 1573 1575 1573 1589 1586 1583 1582 1582 1577 1574 1567 1566 1566 1574 1576 1585 1606 1613 1603 1599 1592 1587 1582 1575 1569
1550 1552 1553 1554 1555 1556 1556 1557 1558 1570 1591 1576 1572 1572 1572 1572 1573 1574 1572 1570 1575 1576 1580 1587 1586 1587 1586 1580 1576 1570 1567 1567 1572 1577 1587 1588 1591 1619 1610 1605 1596 1589 1581 1574 1566
1549 1551 1553 1554 1555 1555 1556 1557 1570 1587 1575 1579 1576 1574 1576 1579 1578 1579 1584 1584 1593 1587 1595 1591 1592 1589 1587 1584 1578 1577 1581 1590 1578 1589 1586 1593 1605 1618 1607 1603 1599 1591 1582 1575 1568
1549 1550 1551 1553 1553 1554 1556 1559 1579 1576 1576 1574 1574 1576 1579 1579 1583 1586 1588 1597 1594 1595 1602 1599 1592 1596 1593 1595 1595 1592 1598 1609 1590 1600 1603 1594 1612 1611 1605 1603 1598 1591 1583 1576 1568
1548 1550 1551 1552 1553 1554 1557 1575 1577 1573 1573 1574 1576 1580 1582 1581 1584 1590 1598 1601 1599 1598 1598 1601 1603 1599 1597 1596 1596 1596 1608 1603 1607 1612 1620 1609 1607 1604 1600 1599 1595 1587 1580 1573 1566
1548 1549 1551 1552 1553 1555 1558 1575 1575 1573 1573 1574 1578 1580 1586 1586 1586 1592 1598 1601 1600 1599 1598 1600 1604 1600 1600 1598 1599 1602 1605 1608 1620 1638 1621 1612 1612 1618 1608 1601 1593 1585 1579 1572 1565
1548 1549 1550 1552 1553 1554 1567 1573 1573 1573 1573 1575 1576 1580 1584 1585 1589 1596 1600 1602 1600 1599 1597 1598 1601 1605 1604 1614 1615 1613 1615 1619 1625 1632 1649 1643 1612 1611 1612 1603 1594 1589 1583 1577 1567
1547 1549 1550 1552 1555 1562 1569 1568 1570 1573 1573 1574 1575 1578 1582 1586 1592 1596 1597 1600 1600 1600 1600 1601 1607 1621 1616 1614 1613 1614 1619 1627 1642 1636 1644 1653 1626 1610 1607 1601 1598 1591 1586 1578 1571
1546 1548 1550 1550 1562 1570 1569 1570 1571 1572 1574 1574 1577 1578 1581 1587 1593 1596 1599 1600 1600 1600 1601 1601 1608 1622 1616 1618 1615 1618 1619 1622 1632 1642 1646 1659 1623 1606 1603 1602 1598 1592 1584 1577 1569
1546 1549 1549 1550 1552 1557 1567 1571 1574 1573 1574 1575 1577 1578 1583 1589 1592 1598 1599 1600 1600 1600 1600 1601 1608 1611 1622 1609 1617 1618 1619 1621 1629 1654 1651 1635 1619 1611 1608 1604 1597 1590 1586 1578 1570
1544 1546 1547 1554 1555 1555 1560 1569 1574 1575 1574 1575 1578 1579 1582 1594 1591 1596 1599 1600 1600 1600 1600 1601 1609 1607 1611 1611 1613 1613 1614 1620 1636 1625 1641 1619 1620 1613 1609 1604 1596 1590 1584 1576 1568
1542 1544 1547 1551 1552 1555 1561 1567 1570 1575 1575 1576 1578 1581 1581 1585 1586 1593 1595 1599 1598 1601 1602 1602 1612 1607 1612 1613 1613 1613 1612 1615 1617 1618 1619 1616 1617 1611 1606 1602 1596 1592 1585 1577 1569
1541 1542 1544 1554 1554 1557 1559 1562 1566 1569 1577 1576 1577 1581 1587 1589 1588 1590 1592 1594 1596 1600 1604 1606 1611 1619 1611 1613 1613 1617 1610 1611 1614 1615 1616 1617 1614 1609 1603 1601 1597 1592 1586 1578 1570
Wind_Speed
5 5 5 6 8 10 11 11 10 10 10 10 10 9 7 5 12 15 15 16 10 6 3 6 10 5 5 5 5 4 5 3 3 6 5 2 5 18 18 25 26 17 18 12 12
5 4 5 7 9 12 11 11 10 9 7 7 6 3 2 3 6 17 15 10 8 6 4 4 9 8 8 5 5 7 4 2 2 6 5 12 12 9 9 18 19 18 13 11 15
6 5 5 9 11 13 13 10 8 6 5 5 2 2 4 1 1 17 15 8 5 4 5 3 5 4 7 11 8 6 4 4 9 27 28 20 20 6 12 7 12 13 12 15 19
8 7 8 11 12 13 10 8 8 7 7 4 2 3 6 2 1 15 14 8 7 7 5 2 2 4 6 6 5 7 8 7 14 10 9 7 9 19 20 14 14 14 16 19 18
8 7 9 11 12 10 7 9 9 10 11 10 5 2 4 9 9 13 12 10 8 6 10 14 10 7 6 10 17 9 7 13 22 25 24 24 18 17 18 15 13 14 17 18 22
8 8 10 11 10 8 7 9 10 11 11 10 11 7 5 10 12 14 10 11 13 13 11 11 11 15 11 5 5 13 20 23 17 16 14 19 11 5 10 12 14 16 19 21 23
8 10 11 11 10 7 8 7 9 8 7 7 7 2 21 12 13 9 8 14 16 16 18 16 7 4 8 12 16 28 8 9 13 10 8 25 10 5 11 12 13 18 20 23 24
9 9 9 8 8 10 7 6 6 7 6 3 4 5 7 15 13 7 5 10 15 15 15 13 7 18 9 23 9 5 5 3 8 11 12 6 2 6 10 9 15 18 25 26 27
8 7 8 8 10 7 8 10 4 8 5 2 7 4 4 10 18 16 9 8 10 10 10 3 15 17 7 4 3 4 2 3 3 7 5 4 4 6 6 15 17 23 28 28 34
8 7 7 8 7 7 10 6 19 7 3 5 6 3 12 11 19 12 15 7 4 4 4 12 10 5 5 7 2 4 2 3 4 2 9 11 6 6 11 16 19 28 30 32 36
8 7 7 9 10 6 2 3 4 10 27 15 11 9 17 4 14 15 6 9 8 10 5 11 11 6 5 3 6 3 3 4 1 5 6 7 7 7 12 19 24 26 33 32 33
9 7 6 9 6 3 2 3 8 10 13 13 19 14 16 15 6 19 15 8 13 5 2 7 7 8 5 10 5 3 4 4 2 7 7 5 5 2 13 12 15 26 31 32 34
9 9 7 9 2 2 4 15 11 7 6 6 11 12 8 13 15 22 15 6 9 10 11 8 5 10 5 6 10 4 6 3 6 6 8 9 3 5 6 16 23 32 32 34 36
8 10 9 7 5 8 12 9 4 1 5 9 9 8 11 3 7 18 14 5 6 5 5 7 9 5 4 4 5 4 3 8 6 6 4 4 2 3 7 8 20 26 36 36 38
8 10 10 9 7 7 7 6 4 3 4 6 5 3 13 7 1 24 14 21 6 5 3 1 7 8 5 5 4 7 13 3 4 5 4 3 4 6 5 10 17 28 30 35 37
9 10 11 9 7 7 5 3 3 5 2 2 4 5 4 14 6 5 17 9 7 7 11 3 4 4 3 6 3 15 5 6 4 3 2 4 4 3 6 9 14 24 31 34 37
9 10 10 10 5 5 5 2 5 5 2 0 2 3 4 5 5 8 5 10 5 3 6 1 3 5 7 6 8 10 6 4 4 5 4 1 6 4 6 7 13 23 30 36 36
9 8 8 8 7 6 6 4 5 3 1 2 2 3 4 2 4 8 3 5 5 4 4 4 4 8 12 4 3 5 4 4 4 3 5 4 4 3 2 14 22 25 30 33 38
9 7 6 6 8 8 4 4 6 3 1 5 3 3 3 3 4 5 4 2 2 5 4 2 3 2 4 4 3 5 5 1 1 2 2 3 4 2 21 21 24 28 31 33 39
9 7 5 9 7 5 4 4 3 1 1 1 3 0 3 5 3 4 2 2 4 3 3 0 4 3 4 5 9 6 2 2 4 4 5 4 1 4 14 15 21 28 34 36 40
8 4 4 7 6 2 4 4 3 2 2 1 3 3 3 3 3 2 1 1 3 5 3 1 2 2 4 5 3 6 4 5 5 3 3 3 3 2 8 12 17 28 31 36 39
5 3 7 7 3 4 3 4 5 3 3 2 4 3 3 3 3 2 2 1 5 3 2 2 4 3 1 1 6 3 3 3 4 5 1 3 5 2 9 24 25 28 31 36 36
4 4 6 4 4 1 2 3 3 2 2 2 2 2 3 3 4 2 2 1 5 3 1 1 3 3 1 3 1 4 2 4 4 3 3 3 5 7 27 23 27 27 31 37 37
4 2 3 3 6 8 5 3 3 3 3 4 4 4 4 3 5 5 2 1 1 2 1 0 3 4 5 4 3 2 3 2 4 3 3 5 8 9 14 14 28 29 32 36 36
3 2 4 2 1 8 5 4 4 3 2 2 3 1 5 4 2 3 2 0 1 1 2 3 3 2 1 2 2 2 3 5 4 4 4 5 5 5 11 17 25 28 32 35 36
3 5 5 4 11 10 2 4 5 3 2 1 6 2 2 5 3 7 6 4 3 2 2 3 2 2 1 3 3 3 4 6 4 3 5 5 6 9 23 21 28 29 32 33 35
4 6 4 1 3 4 4 7 7 12 4 2 15 7 6 2 12 14 9 10 6 4 2 2 3 3 0 2 1 5 4 2 1 1 4 3 4 12 17 22 25 26 32 33 36
Wind_Direction
55 85 103 118 125 128 124 122 121 118 120 122 129 117 94 68 41 44 38 4 357 16 5 61 53 18 32 42 55 91 62 51 151 161 157 218 127 67 78 76 70 74 68 43 1
55 83 97 124 126 131 124 117 113 117 127 141 139 108 11 352 37 34 24 15 359 24 57 44 36 70 72 58 43 71 88 152 18 106 103 81 89 98 80 72 65 67 53 17 1
61 85 108 128 131 130 119 105 97 102 123 148 168 325 322 7 72 11 24 41 20 352 28 35 360 69 58 50 25 46 110 114 79 115 100 90 70 119 106 51 80 69 43 10 4
70 91 115 128 131 131 110 79 77 90 100 106 117 76 48 184 63 7 20 25 18 360 5 61 59 85 64 51 55 96 63 124 151 141 106 89 99 86 83 98 82 55 22 10 8
79 98 115 129 133 132 101 88 77 102 93 82 74 88 65 70 22 12 24 29 58 49 63 85 96 88 100 116 77 89 107 85 111 106 102 106 95 95 85 90 61 31 19 15 1
93 107 115 126 126 124 105 90 95 115 109 75 62 65 75 66 21 11 32 51 68 59 66 73 91 97 105 69 74 126 118 120 113 111 120 102 72 89 73 67 42 25 22 9 0
109 115 115 120 119 111 114 78 97 128 117 72 48 44 55 48 22 17 50 65 70 70 67 69 107 120 107 91 110 119 102 89 138 135 129 102 45 73 76 49 37 30 14 1 359
123 121 119 123 116 110 102 85 103 124 143 74 34 61 74 34 27 59 72 86 91 85 53 68 91 83 53 116 114 91 118 144 210 174 172 38 123 74 73 57 42 22 9 4 357
138 129 119 123 129 116 114 82 95 116 134 82 49 78 48 20 36 36 31 109 94 71 90 66 58 55 57 65 56 19 213 123 112 194 101 62 142 114 76 60 30 15 12 2 355
155 144 129 129 132 133 131 74 62 175 126 67 29 60 24 5 20 35 49 104 83 77 61 46 60 67 20 40 290 272 16 63 95 122 59 96 122 149 72 49 22 17 8 0 355
171 159 141 142 144 133 111 137 113 66 62 73 67 72 31 35 36 37 44 63 82 62 67 34 55 26 15 333 252 227 116 60 322 149 93 112 130 166 69 38 24 12 8 357 351
183 175 157 161 163 191 24 109 116 120 83 60 56 53 45 41 44 33 45 65 42 61 40 42 39 324 208 12 8 47 119 33 354 113 93 141 142 162 52 24 15 9 0 353 350
189 184 156 154 138 50 139 122 112 107 84 36 30 27 17 32 40 10 24 77 73 58 53 90 299 310 22 13 14 353 115 153 208 99 52 128 53 44 342 5 7 6 358 355 351
192 194 178 168 150 119 123 126 125 137 79 332 357 23 7 50 56 19 33 33 51 140 94 73 353 9 4 18 19 316 160 304 217 150 202 198 274 359 340 330 358 354 358 352 350
191 191 184 178 167 150 143 129 31 158 68 324 4 39 40 75 15 19 36 60 68 17 113 339 355 5 6 328 311 259 318 269 158 147 112 149 82 306 324 344 353 349 346 350 349
188 189 190 182 180 177 177 201 355 48 117 9 11 17 38 32 37 352 36 66 72 62 44 92 41 44 273 301 314 321 7 34 55 90 56 328 143 324 358 326 337 346 345 348 350
186 188 195 203 208 208 190 182 48 92 313 53 46 42 79 17 37 29 43 36 38 35 25 86 1 327 10 352 354 7 37 358 354 5 233 156 59 217 295 324 332 336 343 348 352
185 187 199 208 199 180 166 60 82 162 189 215 126 85 77 15 35 14 53 34 24 31 66 25 9 8 346 45 297 0 64 109 273 293 295 349 144 200 243 350 349 348 348 349 351
178 180 182 186 169 162 166 65 183 187 146 146 70 93 22 22 108 78 55 16 344 20 94 57 37 325 7 12 16 333 32 273 87 353 11 290 341 341 359 350 348 348 351 352 351
165 158 155 160 154 161 83 150 161 110 80 122 134 197 130 345 71 64 19 341 323 35 357 235 96 356 341 11 29 81 317 9 17 32 317 306 309 281 337 338 347 348 350 350 348
158 145 156 159 155 104 123 172 140 134 127 101 147 105 92 120 80 74 344 49 351 322 75 36 87 321 39 18 317 351 14 31 108 97 180 303 266 29 291 342 343 342 345 349 347
169 100 149 154 72 54 112 130 129 130 89 86 95 91 105 85 84 121 171 254 355 329 58 354 114 76 63 9 86 71 91 99 109 282 120 154 279 125 326 360 345 339 346 347 346
144 117 139 172 132 78 104 65 82 121 56 95 101 77 72 110 103 127 156 190 6 49 146 320 30 81 325 326 37 71 45 95 97 75 219 126 278 342 350 346 345 343 346 345 345
174 81 141 118 110 131 137 139 109 75 95 98 116 108 96 75 31 154 151 232 15 63 52 18 81 137 183 215 149 164 172 122 126 105 212 231 290 329 331 340 340 341 347 346 347
180 149 146 182 113 123 110 132 129 139 103 135 64 115 146 123 110 137 125 35 12 51 64 88 108 111 103 163 173 238 191 187 169 181 153 275 280 304 325 330 331 342 346 346 349
185 154 121 88 131 115 93 168 138 147 103 177 132 50 103 137 188 188 139 180 177 130 69 19 155 117 142 232 242 287 259 210 219 182 263 292 305 338 332 339 339 350 346 346 348
169 151 156 62 114 98 198 170 174 136 55 151 145 105 67 90 103 97 106 108 121 129 126 82 119 89 169 212 344 306 217 184 130 223 220 264 259 325 332 338 332 347 347 346 347